Wind_Speed
13 12 11 10 9 8 6 6 5 6 6 7 8 9 10 11 12 12 13 13 13 13 13 13 14 14 14 14 14 14 14 14 15 15 16 16 17 17 17 17 17 17 17
14 13 11 10 9 8 6 6 6 6 7 8 9 10 11 12 12 13 13 13 13 13 13 13 14 14 14 14 14 14 14 15 16 16 16 17 17 18 18 18 18 18 18
14 12 11 10 8 8 7 7 7 7 8 9 10 11 12 12 12 12 12 12 12 13 13 14 14 14 14 15 15 15 15 15 16 16 17 17 17 18 18 18 18 18 18
13 12 11 10 9 8 8 8 9 9 9 10 11 11 12 12 12 12 12 13 13 13 14 14 14 14 14 15 15 15 15 16 16 17 17 18 18 18 19 19 19 18 18
14 13 11 10 10 9 9 9 10 10 11 11 12 12 13 13 13 13 13 13 13 14 14 14 14 14 14 14 14 15 15 16 17 17 18 18 18 18 19 19 19 19 18
15 14 12 12 11 11 11 11 11 12 12 12 13 13 13 13 13 13 13 13 14 14 14 14 14 14 14 14 14 15 15 16 17 17 18 18 18 19 19 19 19 19 19
17 15 14 14 13 13 13 12 12 13 13 14 14 14 14 14 14 14 14 14 14 14 14 15 15 14 14 14 14 15 16 16 17 17 17 18 18 19 19 19 19 19 18
19 17 16 16 16 15 15 14 14 14 14 15 15 15 16 15 15 15 15 15 15 15 15 15 15 15 15 15 15 16 16 17 17 17 18 18 18 19 19 19 19 19 19
21 19 19 18 18 17 16 16 15 15 15 15 16 16 16 16 16 16 16 16 16 16 16 16 16 16 16 16 17 17 18 18 18 18 18 18 18 18 19 19 19 19 19
23 22 21 21 20 19 18 18 17 17 17 16 16 16 17 17 17 17 17 17 17 17 17 18 18 18 18 18 18 19 19 19 20 19 19 19 19 19 19 19 19 19 20
25 24 24 23 22 21 20 19 19 19 18 18 17 17 17 18 18 18 18 19 19 19 19 19 19 20 20 20 20 20 21 21 22 22 21 21 21 21 20 20 20 20 20
27 26 25 25 24 23 22 21 20 20 20 19 19 19 18 19 19 19 19 20 20 21 21 21 21 22 22 23 23 22 22 23 24 24 24 23 23 23 22 22 22 22 21
29 28 27 26 25 24 23 22 22 21 21 21 21 21 20 20 21 21 21 21 22 22 23 23 23 23 24 25 25 25 25 25 25 26 26 25 25 25 25 24 24 23 23
31 30 29 28 27 26 25 23 23 23 23 23 23 22 22 22 22 23 23 23 24 25 25 25 25 25 26 27 28 28 28 27 27 27 28 28 27 27 27 26 26 25 25
33 32 31 29 28 27 26 25 25 24 24 24 24 24 23 23 24 25 25 26 26 27 27 28 28 28 28 29 30 31 31 30 30 30 30 30 30 29 29 29 28 28 27
35 34 32 31 30 28 28 27 26 26 26 25 25 25 25 26 26 26 27 27 28 29 29 29 30 31 31 32 33 34 34 34 33 33 33 32 32 32 32 31 30 30 29
36 35 34 33 31 30 29 28 28 27 27 26 27 27 27 28 28 28 28 29 30 31 31 32 33 34 34 35 36 37 38 38 37 37 36 36 35 35 35 34 33 33 32
37 36 35 34 33 32 31 30 29 28 27 27 28 28 29 30 30 30 30 31 32 33 33 34 35 36 37 38 39 40 40 40 40 40 39 39 39 38 38 37 37 36 35
37 36 35 34 34 33 33 32 31 30 29 29 29 30 31 31 32 32 33 33 34 35 36 36 37 39 39 40 42 42 43 43 44 44 43 43 42 42 41 41 40 39 38
38 37 36 36 35 34 34 33 32 31 31 31 31 32 33 33 34 35 35 36 37 38 39 39 40 41 42 43 44 45 45 46 46 46 46 47 46 45 45 44 43 43 42
39 38 37 37 36 35 34 34 34 33 33 34 34 34 35 36 37 37 37 38 39 40 41 42 43 43 44 46 47 47 47 48 48 48 49 50 49 49 48 47 47 46 45
40 39 38 38 37 36 35 35 35 35 35 36 36 37 38 38 39 39 40 41 41 42 43 44 45 46 47 48 49 49 49 49 49 50 51 51 51 51 50 50 49 48 48
40 40 39 39 38 38 37 37 37 37 37 37 38 38 39 40 41 42 42 43 44 45 45 45 46 47 48 49 50 51 52 52 52 53 53 54 54 54 53 53 52 51 50
41 41 40 40 39 39 38 38 38 38 39 39 39 39 40 40 42 43 44 45 46 46 46 47 47 48 49 49 50 52 53 54 55 55 55 56 56 56 55 54 54 54 53
43 43 42 42 41 41 40 40 40 40 40 40 40 40 41 42 43 44 45 45 46 46 46 47 47 48 48 49 51 52 54 55 56 57 57 57 57 57 57 57 56 56 55
43 43 43 43 43 42 42 41 40 40 40 40 41 42 43 43 44 44 44 45 45 45 46 46 46 47 48 50 51 52 54 55 56 57 58 57 57 57 56 56 57 56 56
Wind_Direction
226 230 234 240 244 248 253 259 270 281 290 298 304 309 313 316 318 319 319 319 319 320 319 318 319 319 320 319 318 315 311 307 305 305 304 304 304 304 304 305 305 306 306
227 230 231 236 242 249 256 264 273 283 291 299 305 309 312 314 315 315 316 316 316 315 315 315 316 316 316 315 313 311 309 305 303 303 302 301 301 301 302 302 303 304 305
225 227 229 234 241 252 261 271 279 287 294 299 303 306 308 310 312 313 313 312 313 314 314 314 313 313 312 311 309 308 306 304 303 302 300 299 299 300 300 300 301 302 303
226 228 231 237 244 253 264 274 282 288 293 297 301 304 307 308 309 310 310 310 311 313 313 313 312 311 309 308 307 306 304 302 301 301 300 299 298 298 299 300 301 301 302
229 232 236 242 248 254 261 270 279 286 291 295 299 302 306 307 308 308 309 309 310 311 311 312 311 310 309 307 305 303 302 301 302 302 301 300 299 298 299 299 300 301 302
231 235 241 247 252 256 259 265 273 280 287 293 297 301 304 307 308 308 308 307 308 309 309 309 309 309 307 306 304 303 302 302 302 302 302 301 300 300 299 299 299 300 300
233 238 244 250 255 258 261 264 267 274 281 288 294 299 303 306 307 308 308 307 307 306 306 306 305 304 303 303 301 300 300 299 299 299 299 299 299 300 299 298 298 298 299
236 242 247 252 257 261 264 266 267 271 277 283 289 295 299 302 304 306 306 306 305 305 304 303 303 301 300 299 298 298 298 298 297 298 298 298 298 298 298 298 299 299 298
238 244 250 255 259 263 265 268 270 272 276 281 287 292 295 298 300 302 303 304 304 303 302 301 301 300 298 297 297 297 297 296 296 296 297 297 296 296 296 297 297 298 297
240 245 251 256 260 263 266 268 271 275 278 283 287 289 292 294 296 298 300 302 302 302 301 300 299 298 297 297 296 296 296 295 295 295 294 294 294 294 294 294 295 295 294
241 246 251 256 260 263 266 269 273 277 281 285 287 288 290 292 293 295 298 299 300 299 299 298 298 297 296 296 295 295 294 294 293 293 292 291 290 291 290 291 291 291 291
241 245 250 255 259 262 265 269 274 279 283 287 288 289 290 291 291 293 295 296 297 297 296 296 296 295 295 295 294 294 294 294 293 292 291 290 289 288 287 287 287 287 287
241 245 249 253 257 260 264 269 274 279 283 286 288 290 291 291 291 292 292 293 294 294 294 293 293 293 293 293 293 293 293 293 292 291 291 290 288 287 285 284 284 284 283
239 244 248 252 255 259 264 268 273 277 281 284 286 288 289 290 291 292 292 293 293 293 293 293 292 292 292 292 292 292 292 292 291 291 290 290 288 286 284 282 281 280 280
238 242 246 250 254 259 263 268 271 275 278 281 283 285 287 289 290 292 293 293 293 293 293 293 293 292 292 291 291 290 290 290 290 290 289 288 287 286 283 281 279 278 277
238 241 244 248 251 255 260 264 268 272 275 278 280 283 285 287 288 290 291 292 292 292 293 293 293 292 292 291 291 290 289 289 288 287 287 286 285 284 282 280 278 277 275
238 241 244 247 250 253 257 261 264 268 272 275 278 280 283 284 285 287 288 289 289 291 292 293 292 292 292 292 291 290 289 289 287 286 285 285 283 282 280 279 277 275 273
238 241 244 247 250 253 257 260 263 266 269 272 275 278 280 282 284 285 286 287 288 289 291 291 292 292 292 291 290 289 288 288 287 286 284 283 282 281 279 278 276 274 273
238 241 244 247 250 253 256 259 263 266 269 272 274 277 279 281 283 285 286 288 289 290 291 291 290 290 290 290 289 288 288 287 286 285 284 283 281 280 278 276 275 274 272
239 241 243 246 249 253 257 260 263 266 269 271 274 276 279 281 283 285 286 288 289 290 290 290 290 289 289 289 288 288 288 287 287 287 285 284 282 280 278 277 275 274 272
240 242 244 246 249 253 257 261 264 267 270 273 275 277 279 281 282 284 286 287 289 289 290 290 290 290 289 289 289 288 288 288 288 287 286 285 284 282 280 278 276 274 273
240 243 245 248 250 254 257 261 264 267 270 273 276 279 280 282 284 285 286 287 288 289 289 290 290 290 290 290 290 289 289 289 289 287 286 286 285 283 281 279 277 275 273
241 243 247 250 253 255 258 261 265 267 270 272 274 277 279 281 283 285 286 288 288 289 290 290 290 290 290 290 291 291 290 290 288 288 287 286 285 283 281 279 277 275 273
241 244 247 251 254 258 261 263 266 268 270 273 274 276 278 279 281 283 285 286 287 288 289 289 290 291 291 291 291 292 292 291 290 288 287 286 284 283 281 278 275 273 271
242 244 248 251 255 259 262 264 267 269 271 273 275 276 277 279 280 281 283 284 285 287 288 289 290 291 291 292 292 292 292 292 291 290 288 286 284 282 279 276 274 271 269
243 245 248 251 254 257 261 263 266 268 270 273 275 276 278 279 280 281 282 283 285 286 288 289 289 290 291 292 293 293 293 292 291 290 288 286 284 281 278 275 273 270 268
Height
5893 5894 5895 5896 5897 5897 5898 5898 5898 5899 5899 5899 5899 5899 5899 5899 5898 5898 5897 5897 5896 5895 5895 5894 5893 5893 5892 5891 5890 5890 5889 5887 5886 5885 5884 5883 5881 5880 5878 5877 5875 5874 5873
5891 5893 5894 5895 5895 5896 5896 5897 5898 5898 5898 5898 5898 5898 5898 5898 5897 5897 5896 5895 5895 5894 5893 5892 5891 5891 5890 5889 5888 5887 5886 5885 5884 5883 5882 5880 5879 5877 5876 5874 5873 5872 5870
5889 5891 5892 5893 5894 5895 5895 5896 5897 5897 5897 5897 5897 5897 5897 5897 5896 5895 5895 5894 5893 5892 5891 5890 5890 5889 5888 5887 5886 5885 5884 5883 5882 5880 5879 5878 5876 5875 5874 5872 5870 5869 5868
5887 5889 5890 5892 5893 5893 5894 5895 5895 5896 5896 5896 5896 5896 5896 5895 5895 5894 5893 5892 5891 5890 5889 5888 5888 5886 5885 5884 5884 5883 5881 5880 5879 5878 5876 5875 5874 5872 5871 5869 5868 5866 5865
5885 5887 5888 5890 5891 5892 5893 5894 5894 5895 5895 5895 5895 5895 5894 5893 5893 5892 5891 5890 5889 5888 5887 5886 5885 5884 5883 5882 5881 5880 5878 5877 5876 5875 5873 5872 5871 5869 5868 5866 5865 5863 5862
5883 5885 5886 5888 5889 5890 5891 5892 5893 5893 5893 5893 5893 5893 5892 5891 5891 5890 5889 5888 5887 5886 5885 5884 5883 5882 5881 5879 5878 5877 5876 5874 5873 5872 5870 5869 5868 5866 5865 5863 5862 5860 5859
5880 5882 5884 5886 5887 5888 5890 5891 5891 5892 5891 5891 5891 5890 5890 5889 5888 5887 5887 5886 5885 5884 5883 5882 5881 5879 5878 5877 5876 5874 5873 5871 5870 5869 5867 5866 5865 5863 5862 5860 5859 5857 5856
5878 5880 5882 5884 5885 5886 5887 5888 5889 5889 5889 5889 5889 5888 5887 5886 5886 5885 5884 5883 5882 5881 5880 5879 5878 5877 5876 5874 5873 5871 5870 5868 5867 5866 5864 5863 5861 5860 5858 5857 5855 5854 5852
5875 5877 5879 5881 5882 5884 5885 5886 5886 5887 5887 5887 5886 5885 5885 5884 5883 5882 5881 5880 5879 5878 5877 5876 5875 5874 5872 5871 5870 5868 5867 5865 5863 5862 5861 5859 5858 5856 5855 5853 5852 5850 5849
5872 5875 5876 5878 5880 5881 5882 5883 5883 5884 5884 5884 5883 5883 5882 5881 5880 5879 5878 5877 5876 5875 5873 5872 5871 5870 5869 5868 5866 5865 5863 5861 5860 5858 5857 5855 5854 5852 5851 5849 5848 5847 5845
5869 5871 5873 5875 5876 5878 5879 5879 5880 5880 5880 5880 5880 5879 5879 5878 5877 5876 5875 5874 5872 5871 5870 5869 5867 5866 5865 5864 5863 5861 5860 5858 5856 5854 5853 5851 5850 5848 5847 5845 5844 5842 5841
5865 5868 5870 5871 5873 5874 5875 5876 5876 5877 5877 5876 5876 5876 5875 5874 5873 5872 5871 5870 5869 5867 5866 5865 5864 5862 5861 5860 5858 5857 5856 5854 5852 5850 5849 5847 5845 5844 5842 5841 5839 5838 5836
5861 5863 5866 5867 5869 5870 5871 5872 5873 5873 5873 5872 5872 5872 5871 5870 5869 5868 5867 5866 5865 5863 5862 5861 5860 5858 5857 5855 5854 5853 5851 5850 5848 5846 5844 5843 5841 5839 5837 5836 5834 5833 5831
5856 5859 5861 5863 5865 5866 5867 5868 5868 5868 5868 5868 5868 5867 5867 5866 5865 5864 5863 5862 5861 5859 5858 5857 5856 5854 5852 5851 5849 5848 5846 5845 5843 5841 5839 5837 5836 5834 5832 5830 5829 5828 5826
5851 5854 5856 5858 5860 5861 5862 5863 5864 5864 5864 5864 5863 5863 5862 5862 5860 5859 5858 5857 5856 5855 5853 5852 5851 5849 5848 5846 5844 5842 5840 5839 5837 5835 5833 5831 5830 5828 5826 5824 5823 5821 5820
5846 5849 5851 5854 5855 5857 5858 5859 5859 5859 5859 5859 5858 5858 5857 5857 5856 5855 5854 5852 5851 5849 5848 5847 5845 5844 5842 5840 5838 5836 5834 5833 5831 5829 5827 5825 5823 5821 5819 5818 5816 5815 5813
5840 5843 5845 5848 5850 5851 5853 5854 5854 5854 5854 5854 5853 5853 5852 5852 5851 5850 5849 5848 5846 5844 5842 5841 5839 5837 5835 5834 5831 5829 5827 5825 5824 5822 5820 5818 5815 5814 5812 5810 5809 5807 5806
5833 5836 5839 5841 5843 5845 5846 5847 5848 5849 5849 5848 5848 5847 5847 5846 5845 5844 5843 5842 5840 5838 5837 5835 5832 5830 5828 5826 5824 5822 5820 5818 5816 5814 5812 5810 5807 5805 5804 5802 5801 5799 5798
5827 5830 5833 5835 5836 5838 5839 5841 5842 5842 5843 5842 5842 5841 5841 5840 5839 5838 5837 5835 5833 5831 5830 5827 5825 5823 5821 5818 5816 5813 5811 5809 5807 5805 5803 5801 5799 5797 5795 5793 5792 5790 5789
5821 5823 5826 5828 5830 5831 5832 5834 5835 5835 5836 5836 5835 5835 5834 5833 5832 5830 5829 5827 5825 5823 5821 5819 5817 5814 5812 5809 5806 5804 5802 5800 5797 5795 5793 5791 5789 5787 5785 5783 5782 5781 5780
5814 5816 5819 5821 5823 5824 5826 5827 5828 5828 5828 5828 5828 5827 5826 5825 5824 5822 5821 5819 5817 5815 5812 5810 5807 5805 5802 5799 5796 5794 5792 5789 5787 5785 5782 5780 5778 5776 5774 5772 5771 5770 5769
5806 5809 5811 5813 5816 5817 5819 5820 5820 5821 5821 5821 5820 5819 5818 5816 5815 5813 5812 5810 5808 5806 5804 5801 5798 5795 5792 5788 5785 5782 5781 5780 5776 5773 5770 5767 5765 5763 5762 5760 5759 5758 5757
5798 5801 5803 5806 5808 5809 5811 5812 5813 5813 5813 5813 5812 5811 5810 5808 5806 5804 5802 5800 5798 5796 5794 5791 5787 5784 5781 5778 5774 5770 5768 5767 5764 5762 5758 5755 5752 5750 5749 5747 5746 5745 5744
5791 5793 5796 5798 5799 5801 5803 5804 5805 5805 5805 5805 5804 5803 5802 5800 5798 5796 5794 5791 5789 5786 5783 5780 5777 5774 5770 5767 5763 5759 5755 5752 5749 5748 5746 5742 5738 5736 5735 5733 5732 5731 5730
5782 5785 5788 5790 5791 5793 5794 5795 5796 5796 5796 5796 5795 5794 5792 5791 5789 5787 5784 5782 5779 5776 5773 5770 5767 5763 5759 5756 5752 5748 5743 5739 5735 5731 5730 5728 5724 5721 5719 5717 5716 5715 5715
5774 5777 5779 5782 5783 5785 5786 5786 5787 5787 5787 5786 5786 5784 5783 5781 5779 5777 5774 5772 5769 5766 5763 5760 5756 5753 5749 5745 5740 5736 5731 5726 5722 5717 5713 5711 5708 5705 5702 5700 5699 5699 5699